C/2013 G7 ( McNaught )

Japanese version
Home page
Updated on June 11, 2016

---------------------------------------------------------------------

* Profile

Discovery Date April 13, 2013
Magnitude 18.1 mag
Discoverer Robert H. McNaught (Siding Spring)

* Pictures

* Orbital Elements

Epoch 2014 Mar. 4.0 TT = JDT 2456720.5
T 2014 Mar. 18.66164 TT                                 MPCW
q   4.6774757            (2000.0)            P               Q
z  +0.0005484      Peri.  218.26023     -0.64197922     +0.25812795
 +/-0.0000013      Node    48.39988     -0.20262731     +0.85102820
e   0.9974346      Incl.  105.10376     -0.73946254     -0.45729745
From 294 observations 2012 May 21-2015 Feb. 28, mean residual 0".5.

* Magnitudes Graph

        m1 = 7.5 + 5 log d + 10.0 log r

---------------------------------------------------------------------

The orbital elements are published on M.P.E.C. 2015-N31.
The magnitudes graphs are made with Comet for Windows.

---------------------------------------------------------------------

Copyright(C) Seiichi Yoshida (comet@aerith.net). All rights reserved.